This is the latest recevied weather packets stored in our database for station/object HS1AXC-1. If no packets are shown the sender has not sent any weather packets the latest 10 day(s).
| Time | Temp. | Humidity | Pressure | Rain* | Wind** | Luminosity | Snow |
|---|---|---|---|---|---|---|---|
| 1777693431 | 36.11° C | 68% | 1010 hPa | - | - | 2 W/m² | - |
| 1777692809 | 35.56° C | 71% | 1011 hPa | - | - | 2 W/m² | - |
| 1777692187 | 34.44° C | 78% | 1011 hPa | - | - | 2 W/m² | - |
| 1777691565 | 35° C | 78% | 1011 hPa | - | - | 2 W/m² | - |
| 1777690943 | 34.44° C | 81% | 1011 hPa | - | - | 2 W/m² | - |
| 1777690321 | 33.89° C | 83% | 1011 hPa | - | - | 2 W/m² | - |
| 1777689699 | 33.89° C | 85% | 1011 hPa | - | - | 2 W/m² | - |
| 1777689077 | 33.89° C | 84% | 1011 hPa | - | - | 2 W/m² | - |
| 1777688455 | 33.33° C | 84% | 1011 hPa | - | - | 1 W/m² | - |
| 1777687833 | 33.33° C | 85% | 1011 hPa | - | - | 2 W/m² | - |
| 1777687211 | 32.78° C | 86% | 1011 hPa | - | - | 2 W/m² | - |
| 1777686589 | 31.67° C | 89% | 1011 hPa | - | - | 1 W/m² | - |
| 1777685967 | 31.67° C | 90% | 1011 hPa | - | - | 1 W/m² | - |
| 1777685345 | 32.22° C | 90% | 1011 hPa | - | - | 1 W/m² | - |
| 1777684670 | 31.67° C | 94% | 1011 hPa | - | - | 1 W/m² | - |
| 1777684048 | 31.67° C | 96% | 1011 hPa | - | - | 2 W/m² | - |
| 1777683426 | 31.11° C | 99% | 1010 hPa | - | - | 1 W/m² | - |
| 1777682804 | 30.56° C | 99% | 1010 hPa | - | - | 0 W/m² | - |
| 1777682182 | 30.56° C | 99% | 1010 hPa | - | - | 0 W/m² | - |
| 1777681560 | 30.56° C | 99% | 1010 hPa | - | - | 0 W/m² | - |
| 1777680938 | 30.56° C | 99% | 1010 hPa | - | - | 0 W/m² | - |
| 1777680316 | 30.56° C | 99% | 1010 hPa | - | - | 0 W/m² | - |
| 1777679693 | 30.56° C | 99% | 1010 hPa | - | - | 0 W/m² | - |
| 1777679071 | 29.44° C | 99% | 1010 hPa | - | - | 0 W/m² | - |
| 1777678758 | 29.44° C | 99% | 1010 hPa | - | - | 0 W/m² | - |
* Rain since midnight (hover to see other rain measurements)
** Current wind speed in m/s (hover to see current wind gust speed)